| time (UTC) | temp F | wind direction | speed MPH | gust MPH | rain 1hr in | rain 24hr in | rain mn in | humidity % | barometer mb |
| 20260905022642 | 56 | 58 | 0.0 | 0.0 | 0.00 | 0.09 | 0.09 | 90 | 1016.5 |
| 20260905022137 | 56 | 57 | 0.0 | 0.0 | 0.00 | 0.09 | 0.09 | 90 | 1016.6 |
| 20260905021632 | 56 | 57 | 0.0 | 0.0 | 0.00 | 0.09 | 0.09 | 89 | 1016.9 |
| 20260905021127 | 57 | 57 | 0.0 | 0.0 | 0.00 | 0.09 | 0.09 | 89 | 1016.8 |
| 20260905020627 | 57 | 57 | 0.0 | 0.0 | 0.00 | 0.09 | 0.09 | 88 | 1016.6 |
| 20260905020122 | 57 | 57 | 0.0 | 0.0 | 0.00 | 0.09 | 0.09 | 88 | 1016.6 |
| 20260905015621 | 57 | 57 | 0.0 | 0.0 | 0.00 | 0.09 | 0.09 | 87 | 1016.6 |
| 20260905015115 | 58 | 57 | 0.0 | 0.0 | 0.00 | 0.09 | 0.09 | 87 | 1016.5 |
| 20260905014609 | 58 | 57 | 0.0 | 0.0 | 0.00 | 0.09 | 0.09 | 86 | 1016.4 |
| 20260905014105 | 58 | 57 | 0.0 | 0.0 | 0.00 | 0.09 | 0.09 | 86 | 1016.5 |
| 20260905013601 | 59 | 57 | 0.0 | 0.0 | 0.00 | 0.09 | 0.09 | 86 | 1016.5 |
| 20260905013057 | 59 | 57 | 0.0 | 0.0 | 0.00 | 0.09 | 0.09 | 85 | 1016.5 |
| 20260905012556 | 59 | 57 | 0.0 | 0.0 | 0.00 | 0.09 | 0.09 | 82 | 1016.5 |
| 20260905012054 | 59 | 57 | 0.0 | 0.0 | 0.00 | 0.09 | 0.09 | 80 | 1016.6 |
| 20260905011549 | 60 | 58 | 0.0 | 0.0 | 0.00 | 0.09 | 0.09 | 82 | 1016.3 |
| 20260905011045 | 59 | 41 | 0.0 | 0.0 | 0.00 | 0.09 | 0.09 | 82 | 1016.4 |
| 20260905010544 | 60 | 41 | 0.0 | 0.0 | 0.00 | 0.09 | 0.09 | 83 | 1016.4 |
| 20260905010041 | 59 | 41 | 0.0 | 0.0 | 0.00 | 0.09 | 0.09 | 83 | 1016.7 |
| 20260905005536 | 60 | 41 | 0.0 | 0.0 | 0.00 | 0.09 | 0.09 | 87 | 1016.4 |
| 20260905005031 | 60 | 41 | 0.0 | 0.0 | 0.00 | 0.09 | 0.09 | 87 | 1016.3 |
| 20260905004526 | 60 | 41 | 0.0 | 0.0 | 0.00 | 0.09 | 0.09 | 87 | 1016.3 |
| 20260905004021 | 61 | 41 | 0.0 | 0.0 | 0.00 | 0.09 | 0.09 | 86 | 1016.5 |
| 20260905003518 | 61 | 41 | 0.0 | 0.0 | 0.00 | 0.09 | 0.09 | 86 | 1016.4 |
| 20260905003013 | 61 | 41 | 0.0 | 0.0 | 0.00 | 0.09 | 0.09 | 85 | 1016.3 |
| 20260905002508 | 61 | 41 | 0.0 | 0.0 | 0.00 | 0.09 | 0.09 | 85 | 1016.1 |
| 20260905002002 | 60 | 41 | 0.0 | 0.0 | 0.00 | 0.09 | 0.09 | 85 | 1016.2 |
| 20260905001456 | 60 | 41 | 0.0 | 0.0 | 0.00 | 0.09 | 0.09 | 84 | 1016.3 |
| 20260905000951 | 60 | 41 | 0.0 | 0.0 | 0.00 | 0.09 | 0.09 | 83 | 1016.1 |
| 20260905000447 | 61 | 41 | 0.0 | 0.0 | 0.00 | 0.09 | 0.09 | 85 | 1016.3 |
| 20260904235942 | 60 | 41 | 0.0 | 0.0 | 0.00 | 0.09 | 0.09 | 84 | 1016.0 |
| 20260904235438 | 60 | 41 | 0.0 | 0.0 | 0.00 | 0.09 | 0.09 | 85 | 1016.0 |
| 20260904234932 | 60 | 41 | 0.0 | 0.0 | 0.00 | 0.09 | 0.09 | 86 | 1015.8 |
| 20260904234431 | 60 | 41 | 0.0 | 0.0 | 0.00 | 0.09 | 0.09 | 85 | 1016.1 |
| 20260904233928 | 59 | 41 | 0.0 | 0.0 | 0.00 | 0.09 | 0.09 | 85 | 1015.9 |
| 20260904233423 | 60 | 41 | 0.0 | 0.0 | 0.00 | 0.09 | 0.09 | 86 | 1016.0 |
| 20260904232919 | 59 | 41 | 0.0 | 0.0 | 0.00 | 0.09 | 0.09 | 86 | 1015.9 |
| 20260904232416 | 59 | 41 | 0.0 | 0.0 | 0.00 | 0.09 | 0.09 | 85 | 1016.1 |
| 20260904231912 | 59 | 41 | 0.0 | 0.0 | 0.00 | 0.09 | 0.09 | 85 | 1015.9 |
| 20260904231407 | 59 | 41 | 0.0 | 0.0 | 0.00 | 0.09 | 0.09 | 86 | 1015.7 |
| 20260904230902 | 59 | 41 | 0.0 | 0.0 | 0.00 | 0.09 | 0.09 | 86 | 1015.6 |
| 20260904230400 | 60 | 41 | 0.0 | 0.0 | 0.00 | 0.09 | 0.09 | 84 | 1015.9 |
| 20260904225855 | 60 | 41 | 0.0 | 0.0 | 0.00 | 0.09 | 0.09 | 84 | 1015.6 |
| 20260904225354 | 60 | 41 | 0.0 | 0.0 | 0.00 | 0.09 | 0.09 | 84 | 1015.7 |
| 20260904224854 | 61 | 41 | 0.0 | 0.0 | 0.00 | 0.09 | 0.09 | 84 | 1015.6 |
| 20260904224349 | 62 | 41 | 0.0 | 0.0 | 0.00 | 0.09 | 0.09 | 82 | 1015.5 |
| 20260904223849 | 62 | 41 | 0.0 | 0.0 | 0.00 | 0.09 | 0.09 | 79 | 1015.7 |
| 20260904223348 | 62 | 41 | 0.0 | 0.0 | 0.00 | 0.09 | 0.09 | 74 | 1015.8 |
| 20260904222844 | 63 | 41 | 0.0 | 0.0 | 0.00 | 0.09 | 0.09 | 72 | 1015.6 |
| 20260904222339 | 63 | 42 | 0.0 | 0.0 | 0.00 | 0.09 | 0.09 | 72 | 1015.6 |
| 20260904221838 | 63 | 43 | 0.0 | 0.0 | 0.00 | 0.09 | 0.09 | 71 | 1015.5 |
| 20260904221333 | 63 | 43 | 0.0 | 1.0 | 0.00 | 0.09 | 0.09 | 71 | 1015.6 |
| 20260904220829 | 63 | 42 | 0.0 | 0.0 | 0.00 | 0.09 | 0.09 | 72 | 1015.6 |
| 20260904220328 | 63 | 43 | 0.0 | 0.0 | 0.00 | 0.09 | 0.09 | 71 | 1015.5 |
| 20260904215823 | 62 | 43 | 0.0 | 0.0 | 0.00 | 0.09 | 0.09 | 73 | 1015.5 |
| 20260904215319 | 62 | 42 | 0.0 | 0.0 | 0.00 | 0.09 | 0.09 | 74 | 1015.5 |
| 20260904214815 | 63 | 42 | 0.0 | 0.0 | 0.00 | 0.09 | 0.09 | 77 | 1015.3 |
| 20260904214310 | 63 | 42 | 0.0 | 0.0 | 0.00 | 0.09 | 0.09 | 74 | 1015.5 |
| 20260904213808 | 64 | 42 | 0.0 | 0.0 | 0.00 | 0.09 | 0.09 | 73 | 1015.4 |
| 20260904213304 | 64 | 43 | 0.0 | 0.0 | 0.00 | 0.09 | 0.09 | 72 | 1015.4 |
| 20260904212800 | 63 | 63 | 0.0 | 0.0 | 0.00 | 0.09 | 0.09 | 73 | 1015.3 |
| 20260904212300 | 64 | 63 | 0.0 | 0.0 | 0.00 | 0.09 | 0.09 | 70 | 1015.0 |
| 20260904211755 | 63 | 66 | 0.0 | 0.0 | 0.00 | 0.09 | 0.09 | 69 | 1015.4 |
| 20260904211249 | 64 | 8 | 0.0 | 0.0 | 0.00 | 0.09 | 0.09 | 71 | 1015.2 |
| 20260904210744 | 64 | 6 | 0.0 | 0.0 | 0.00 | 0.09 | 0.09 | 76 | 1015.2 |
| 20260904210239 | 63 | 8 | 0.0 | 0.0 | 0.00 | 0.09 | 0.09 | 73 | 1015.2 |
| 20260904205735 | 63 | 4 | 0.0 | 0.0 | 0.00 | 0.09 | 0.09 | 74 | 1015.1 |
| 20260904205231 | 63 | 4 | 0.0 | 0.0 | 0.00 | 0.09 | 0.09 | 71 | 1015.0 |
| 20260904204728 | 62 | 59 | 0.0 | 0.0 | 0.00 | 0.09 | 0.09 | 72 | 1015.0 |
| 20260904204223 | 63 | 51 | 0.0 | 0.0 | 0.00 | 0.09 | 0.09 | 73 | 1015.1 |
| 20260904203719 | 64 | 52 | 0.0 | 1.0 | 0.00 | 0.09 | 0.09 | 72 | 1015.0 |
| 20260904203215 | 63 | 50 | 0.0 | 0.0 | 0.00 | 0.09 | 0.09 | 75 | 1015.1 |
| 20260904202711 | 63 | 50 | 0.0 | 0.0 | 0.00 | 0.09 | 0.09 | 76 | 1015.0 |
| 20260904202207 | 62 | 50 | 0.0 | 0.0 | 0.00 | 0.09 | 0.09 | 74 | 1015.0 |
| 20260904201702 | 62 | 20 | 0.0 | 0.0 | 0.00 | 0.09 | 0.09 | 76 | 1015.1 |
| 20260904201202 | 61 | 47 | 0.0 | 0.0 | 0.00 | 0.09 | 0.09 | 81 | 1015.3 |
| 20260904200656 | 62 | 47 | 0.0 | 0.0 | 0.00 | 0.09 | 0.09 | 82 | 1015.5 |
| 20260904200151 | 62 | 47 | 0.0 | 0.0 | 0.00 | 0.09 | 0.09 | 81 | 1015.3 |
| 20260904195650 | 62 | 48 | 0.0 | 0.0 | 0.00 | 0.09 | 0.09 | 80 | 1015.2 |
| 20260904195150 | 62 | 48 | 0.0 | 0.0 | 0.00 | 0.09 | 0.09 | 81 | 1015.4 |
| 20260904194644 | 62 | 51 | 0.0 | 0.0 | 0.00 | 0.09 | 0.09 | 81 | 1015.3 |
| 20260904194144 | 61 | 57 | 0.0 | 0.0 | 0.00 | 0.09 | 0.09 | 81 | 1015.4 |
| 20260904193639 | 62 | 57 | 0.0 | 0.0 | 0.00 | 0.09 | 0.09 | 82 | 1015.5 |
| 20260904193135 | 61 | 57 | 0.0 | 0.0 | 0.00 | 0.09 | 0.09 | 84 | 1015.5 |
| 20260904192635 | 60 | 57 | 0.0 | 0.0 | 0.00 | 0.09 | 0.09 | 84 | 1015.2 |
| 20260904192131 | 60 | 57 | 0.0 | 0.0 | 0.00 | 0.09 | 0.09 | 88 | 1015.3 |
| 20260904191627 | 60 | 57 | 0.0 | 0.0 | 0.00 | 0.09 | 0.09 | 82 | 1015.6 |
| 20260904191124 | 60 | 57 | 0.0 | 0.0 | 0.00 | 0.09 | 0.09 | 84 | 1015.4 |
| 20260904190619 | 59 | 58 | 0.0 | 0.0 | 0.00 | 0.09 | 0.09 | 86 | 1015.6 |
| 20260904190115 | 59 | 57 | 0.0 | 0.0 | 0.00 | 0.09 | 0.09 | 89 | 1015.6 |
| 20260904185612 | 58 | 57 | 0.0 | 0.0 | 0.00 | 0.09 | 0.09 | 91 | 1015.8 |
| 20260904185106 | 58 | 56 | 0.0 | 0.0 | 0.00 | 0.09 | 0.09 | 89 | 1015.5 |
| 20260904184605 | 58 | 57 | 0.0 | 0.0 | 0.00 | 0.09 | 0.09 | 89 | 1015.4 |
| 20260904184101 | 58 | 57 | 0.0 | 0.0 | 0.00 | 0.09 | 0.09 | 92 | 1015.5 |
| 20260904183556 | 58 | 57 | 0.0 | 0.0 | 0.00 | 0.09 | 0.09 | 88 | 1015.3 |
| 20260904183051 | 58 | 57 | 0.0 | 0.0 | 0.00 | 0.09 | 0.09 | 91 | 1015.6 |
| 20260904182547 | 57 | 57 | 0.0 | 0.0 | 0.00 | 0.09 | 0.09 | 89 | 1015.4 |
| 20260904182047 | 58 | 56 | 0.0 | 0.0 | 0.00 | 0.09 | 0.09 | 91 | 1015.5 |
| 20260904181543 | 57 | 57 | 0.0 | 0.0 | 0.00 | 0.09 | 0.09 | 93 | 1015.4 |
| 20260904181042 | 57 | 56 | 0.0 | 0.0 | 0.00 | 0.09 | 0.09 | 93 | 1015.4 |
| 20260904180537 | 57 | 57 | 0.0 | 0.0 | 0.00 | 0.09 | 0.09 | 92 | 1015.5 |
| 20260904180032 | 57 | 57 | 0.0 | 0.0 | 0.00 | 0.09 | 0.09 | 93 | 1015.4 |
| 20260904175526 | 57 | 56 | 0.0 | 0.0 | 0.00 | 0.09 | 0.09 | 95 | 1015.1 |
| 20260904175025 | 57 | 56 | 0.0 | 0.0 | 0.00 | 0.09 | 0.09 | 96 | 1015.3 |
| 20260904174520 | 56 | 57 | 0.0 | 0.0 | 0.00 | 0.09 | 0.09 | 97 | 1015.3 |
| 20260904174017 | 56 | 14 | 0.0 | 0.0 | 0.00 | 0.09 | 0.09 | 98 | 1015.2 |
| 20260904173517 | 55 | 0 | 0.0 | 0.0 | 0.00 | 0.09 | 0.09 | 99 | 1015.2 |
| 20260904173012 | 55 | 0 | 0.0 | 0.0 | 0.00 | 0.09 | 0.09 | 99 | 1015.2 |
| 20260904172508 | 55 | 359 | 0.0 | 0.0 | 0.00 | 0.09 | 0.09 | 99 | 1015.1 |
| 20260904172007 | 54 | 359 | 0.0 | 0.0 | 0.00 | 0.09 | 0.09 | 99 | 1015.0 |
| 20260904171503 | 55 | 359 | 0.0 | 0.0 | 0.00 | 0.09 | 0.09 | 99 | 1015.2 |
| 20260904170958 | 53 | 359 | 0.0 | 0.0 | 0.00 | 0.09 | 0.09 | 99 | 1015.1 |
| 20260904170453 | 53 | 359 | 0.0 | 0.0 | 0.00 | 0.09 | 0.09 | 99 | 1015.1 |
| 20260904165949 | 54 | 359 | 0.0 | 0.0 | 0.00 | 0.09 | 0.09 | 99 | 1014.9 |
| 20260904165448 | 54 | 359 | 0.0 | 0.0 | 0.00 | 0.09 | 0.09 | 99 | 1014.9 |
| 20260904164947 | 54 | 359 | 0.0 | 0.0 | 0.00 | 0.09 | 0.09 | 99 | 1014.9 |
| 20260904164442 | 53 | 359 | 0.0 | 0.0 | 0.00 | 0.09 | 0.09 | 99 | 1015.1 |
| 20260904163938 | 53 | 359 | 0.0 | 0.0 | 0.00 | 0.09 | 0.09 | 99 | 1014.9 |
| 20260904163438 | 54 | 359 | 0.0 | 0.0 | 0.00 | 0.09 | 0.09 | 99 | 1014.9 |
| 20260904162937 | 53 | 359 | 0.0 | 0.0 | 0.00 | 0.09 | 0.09 | 99 | 1014.8 |
| 20260904162433 | 53 | 359 | 0.0 | 0.0 | 0.00 | 0.09 | 0.09 | 99 | 1014.9 |
| 20260904161922 | 53 | 359 | 0.0 | 0.0 | 0.00 | 0.09 | 0.09 | 99 | 1014.9 |
| 20260904161417 | 53 | 359 | 0.0 | 0.0 | 0.00 | 0.09 | 0.09 | 99 | 1014.7 |
| 20260904160914 | 53 | 359 | 0.0 | 0.0 | 0.00 | 0.09 | 0.09 | 99 | 1014.7 |
| 20260904160408 | 54 | 359 | 0.0 | 0.0 | 0.00 | 0.09 | 0.09 | 99 | 1014.7 |
| 20260904155857 | 54 | 359 | 0.0 | 0.0 | 0.00 | 0.09 | 0.09 | 99 | 1014.9 |
| 20260904155352 | 54 | 359 | 0.0 | 0.0 | 0.00 | 0.09 | 0.09 | 99 | 1014.8 |
| 20260904154850 | 54 | 359 | 0.0 | 0.0 | 0.00 | 0.09 | 0.09 | 99 | 1014.5 |
| 20260904154345 | 54 | 359 | 0.0 | 0.0 | 0.00 | 0.09 | 0.09 | 99 | 1014.6 |
| 20260904153841 | 54 | 359 | 0.0 | 0.0 | 0.00 | 0.09 | 0.09 | 99 | 1014.6 |
| 20260904153336 | 53 | 359 | 0.0 | 0.0 | 0.00 | 0.09 | 0.09 | 99 | 1014.5 |
| 20260904152833 | 53 | 359 | 0.0 | 0.0 | 0.00 | 0.09 | 0.09 | 99 | 1014.5 |
| 20260904152332 | 53 | 359 | 0.0 | 0.0 | 0.00 | 0.09 | 0.09 | 99 | 1014.5 |
| 20260904151827 | 53 | 359 | 0.0 | 0.0 | 0.00 | 0.09 | 0.09 | 99 | 1014.3 |
| 20260904151326 | 53 | 359 | 0.0 | 0.0 | 0.00 | 0.09 | 0.09 | 99 | 1014.4 |
| 20260904150823 | 53 | 359 | 0.0 | 0.0 | 0.00 | 0.09 | 0.09 | 99 | 1014.2 |
| 20260904150318 | 53 | 359 | 0.0 | 0.0 | 0.00 | 0.09 | 0.09 | 99 | 1014.2 |
| 20260904145815 | 53 | 359 | 0.0 | 0.0 | 0.00 | 0.09 | 0.09 | 99 | 1014.2 |
| 20260904145312 | 53 | 359 | 0.0 | 0.0 | 0.00 | 0.09 | 0.09 | 99 | 1014.2 |
| 20260904144807 | 53 | 359 | 0.0 | 0.0 | 0.00 | 0.09 | 0.09 | 99 | 1014.2 |
| 20260904144302 | 53 | 359 | 0.0 | 0.0 | 0.00 | 0.09 | 0.09 | 99 | 1014.0 |
| 20260904143758 | 52 | 359 | 0.0 | 0.0 | 0.00 | 0.09 | 0.09 | 99 | 1014.0 |
| 20260904143255 | 52 | 359 | 0.0 | 0.0 | 0.00 | 0.09 | 0.09 | 99 | 1014.0 |
| 20260904142750 | 52 | 359 | 0.0 | 0.0 | 0.00 | 0.09 | 0.09 | 99 | 1013.6 |
| 20260904142246 | 52 | 359 | 0.0 | 0.0 | 0.00 | 0.09 | 0.09 | 99 | 1013.7 |
| 20260904141746 | 52 | 359 | 0.0 | 0.0 | 0.07 | 0.09 | 0.09 | 99 | 1013.8 |
| 20260904141242 | 52 | 359 | 0.0 | 0.0 | 0.07 | 0.09 | 0.09 | 99 | 1013.7 |
| 20260904140737 | 52 | 0 | 0.0 | 0.0 | 0.00 | 0.08 | 0.08 | 99 | 1013.5 |
| 20260904140232 | 52 | 0 | 0.0 | 0.0 | 0.00 | 0.08 | 0.08 | 99 | 1013.5 |
| 20260904135731 | 52 | 0 | 0.0 | 0.0 | 0.00 | 0.08 | 0.08 | 99 | 1013.7 |
| 20260904135226 | 52 | 0 | 0.0 | 0.0 | 0.00 | 0.08 | 0.08 | 99 | 1013.7 |
| 20260904134722 | 52 | 0 | 0.0 | 0.0 | 0.00 | 0.08 | 0.08 | 99 | 1013.3 |
| 20260904134222 | 52 | 0 | 0.0 | 0.0 | 0.00 | 0.08 | 0.08 | 99 | 1013.4 |
| 20260904133716 | 52 | 0 | 0.0 | 0.0 | 0.05 | 0.08 | 0.08 | 99 | 1013.3 |
| 20260904133213 | 52 | 0 | 0.0 | 0.0 | 0.05 | 0.08 | 0.08 | 99 | 1013.3 |
| 20260904132712 | 52 | 0 | 0.0 | 0.0 | 0.07 | 0.07 | 0.07 | 99 | 1013.3 |
| 20260904132208 | 52 | 0 | 0.0 | 0.0 | 0.07 | 0.07 | 0.07 | 99 | 1013.3 |
| 20260904131706 | 52 | 0 | 0.0 | 0.0 | 0.07 | 0.06 | 0.06 | 99 | 1013.3 |
| 20260904131202 | 52 | 0 | 0.0 | 0.0 | 0.07 | 0.06 | 0.06 | 99 | 1013.0 |
| 20260904130657 | 52 | 0 | 0.0 | 0.0 | 0.00 | 0.05 | 0.05 | 99 | 1013.4 |
| 20260904130156 | 52 | 0 | 0.0 | 0.0 | 0.00 | 0.05 | 0.05 | 99 | 1013.1 |
| 20260904125653 | 52 | 0 | 0.0 | 0.0 | 0.05 | 0.05 | 0.05 | 99 | 1013.3 |
| 20260904125148 | 52 | 0 | 0.0 | 0.0 | 0.00 | 0.04 | 0.04 | 99 | 1013.1 |
| 20260904124643 | 51 | 0 | 0.0 | 0.0 | 0.07 | 0.04 | 0.04 | 99 | 1013.1 |
| 20260904124139 | 52 | 0 | 0.0 | 0.0 | 0.07 | 0.04 | 0.04 | 99 | 1013.1 |
| 20260904123638 | 52 | 0 | 0.0 | 0.0 | 0.07 | 0.04 | 0.04 | 99 | 1013.1 |
| 20260904123134 | 51 | 0 | 0.0 | 0.0 | 0.00 | 0.03 | 0.03 | 99 | 1012.9 |
| 20260904122629 | 51 | 0 | 0.0 | 0.0 | 0.00 | 0.03 | 0.03 | 99 | 1012.8 |
| 20260904122124 | 51 | 0 | 0.0 | 0.0 | 0.00 | 0.03 | 0.03 | 99 | 1012.9 |
| 20260904121619 | 51 | 0 | 0.0 | 0.0 | 0.05 | 0.03 | 0.03 | 99 | 1012.8 |
| 20260904121115 | 51 | 0 | 0.0 | 0.0 | 0.00 | 0.02 | 0.02 | 99 | 1013.0 |
| 20260904120611 | 51 | 0 | 0.0 | 0.0 | 0.00 | 0.02 | 0.02 | 99 | 1012.9 |
| 20260904120107 | 51 | 0 | 0.0 | 0.0 | 0.00 | 0.02 | 0.02 | 99 | 1012.9 |
| 20260904115602 | 51 | 0 | 0.0 | 0.0 | 0.00 | 0.02 | 0.02 | 99 | 1012.8 |
| 20260904115057 | 51 | 0 | 0.0 | 0.0 | 0.00 | 0.02 | 0.02 | 99 | 1012.8 |
| 20260904114556 | 51 | 0 | 0.0 | 0.0 | 0.00 | 0.02 | 0.02 | 99 | 1012.8 |
| 20260904114057 | 51 | 0 | 0.0 | 0.0 | 0.00 | 0.02 | 0.02 | 99 | 1012.7 |
| 20260904113551 | 51 | 0 | 0.0 | 0.0 | 0.00 | 0.02 | 0.02 | 99 | 1012.8 |
| 20260904113050 | 51 | 0 | 0.0 | 0.0 | 0.00 | 0.02 | 0.02 | 99 | 1012.7 |
| 20260904112546 | 51 | 0 | 0.0 | 0.0 | 0.07 | 0.02 | 0.02 | 99 | 1012.8 |
| 20260904112042 | 51 | 0 | 0.0 | 0.0 | 0.07 | 0.02 | 0.02 | 99 | 1012.6 |
| 20260904111537 | 51 | 0 | 0.0 | 0.0 | 0.00 | 0.01 | 0.01 | 99 | 1012.7 |
| 20260904111033 | 51 | 0 | 0.0 | 0.0 | 0.00 | 0.01 | 0.01 | 99 | 1012.6 |
| 20260904110532 | 51 | 0 | 0.0 | 0.0 | 0.00 | 0.01 | 0.01 | 99 | 1012.4 |
| 20260904110029 | 51 | 0 | 0.0 | 0.0 | 0.05 | 0.01 | 0.01 | 99 | 1012.4 |
| 20260904105527 | 51 | 0 | 0.0 | 0.0 | 0.05 | 0.01 | 0.01 | 99 | 1012.4 |
| 20260904105023 | 51 | 0 | 0.0 | 0.0 | 0.00 | 0.00 | 0.00 | 99 | 1012.3 |
| 20260904104519 | 51 | 0 | 0.0 | 0.0 | 0.00 | 0.00 | 0.00 | 99 | 1012.3 |
| 20260904104014 | 51 | 0 | 0.0 | 0.0 | 0.00 | 0.00 | 0.00 | 99 | 1012.3 |
| 20260904103510 | 51 | 0 | 0.0 | 0.0 | 0.00 | 0.00 | 0.00 | 99 | 1012.6 |
| 20260904103006 | 51 | 0 | 0.0 | 0.0 | 0.00 | 0.00 | 0.00 | 99 | 1012.3 |
| 20260904102501 | 51 | 0 | 0.0 | 0.0 | 0.00 | 0.00 | 0.00 | 99 | 1012.4 |
| 20260904101956 | 51 | 0 | 0.0 | 0.0 | 0.00 | 0.00 | 0.00 | 99 | 1012.3 |
| 20260904101453 | 51 | 0 | 0.0 | 0.0 | 0.00 | 0.00 | 0.00 | 99 | 1012.6 |
| 20260904100948 | 51 | 0 | 0.0 | 0.0 | 0.00 | 0.00 | 0.00 | 99 | 1012.2 |
| 20260904100444 | 51 | 0 | 0.0 | 0.0 | 0.00 | 0.00 | 0.00 | 99 | 1012.1 |
| 20260904095943 | 51 | 0 | 0.0 | 0.0 | 0.00 | 0.00 | 0.00 | 99 | 1012.2 |
| 20260904095439 | 51 | 0 | 0.0 | 0.0 | 0.00 | 0.00 | 0.00 | 99 | 1012.3 |
| 20260904094939 | 51 | 0 | 0.0 | 0.0 | 0.00 | 0.00 | 0.00 | 99 | 1012.3 |
| 20260904094434 | 51 | 0 | 0.0 | 0.0 | 0.00 | 0.00 | 0.00 | 99 | 1012.2 |
| 20260904093930 | 52 | 0 | 0.0 | 0.0 | 0.00 | 0.00 | 0.00 | 99 | 1012.2 |
| 20260904093426 | 52 | 0 | 0.0 | 0.0 | 0.00 | 0.00 | 0.00 | 99 | 1012.1 |
| 20260904092921 | 52 | 0 | 0.0 | 0.0 | 0.00 | 0.00 | 0.00 | 99 | 1012.3 |
| 20260904092418 | 52 | 0 | 0.0 | 0.0 | 0.00 | 0.00 | 0.00 | 99 | 1012.1 |
| 20260904091913 | 52 | 0 | 0.0 | 0.0 | 0.00 | 0.00 | 0.00 | 99 | 1012.3 |
| 20260904091409 | 52 | 0 | 0.0 | 0.0 | 0.00 | 0.00 | 0.00 | 99 | 1012.2 |
| 20260904090903 | 52 | 0 | 0.0 | 0.0 | 0.00 | 0.00 | 0.00 | 99 | 1012.3 |
| 20260904090359 | 52 | 0 | 0.0 | 0.0 | 0.00 | 0.00 | 0.00 | 99 | 1012.2 |
| 20260904085854 | 52 | 0 | 0.0 | 0.0 | 0.00 | 0.00 | 0.00 | 99 | 1012.3 |
| 20260904085349 | 52 | 0 | 0.0 | 0.0 | 0.00 | 0.00 | 0.00 | 99 | 1012.2 |
| 20260904084850 | 52 | 0 | 0.0 | 0.0 | 0.00 | 0.00 | 0.00 | 99 | 1012.1 |
| 20260904084346 | 52 | 0 | 0.0 | 0.0 | 0.00 | 0.00 | 0.00 | 99 | 1012.0 |
| 20260904083841 | 52 | 0 | 0.0 | 0.0 | 0.00 | 0.00 | 0.00 | 99 | 1012.2 |
| 20260904083337 | 52 | 0 | 0.0 | 0.0 | 0.00 | 0.00 | 0.00 | 99 | 1012.2 |
| 20260904082833 | 52 | 0 | 0.0 | 0.0 | 0.00 | 0.00 | 0.00 | 99 | 1012.1 |
| 20260904082327 | 52 | 0 | 0.0 | 0.0 | 0.00 | 0.00 | 0.00 | 99 | 1012.2 |
| 20260904081823 | 52 | 0 | 0.0 | 0.0 | 0.00 | 0.00 | 0.00 | 99 | 1012.0 |
| 20260904081318 | 52 | 0 | 0.0 | 0.0 | 0.00 | 0.00 | 0.00 | 99 | 1012.0 |
| 20260904080814 | 52 | 0 | 0.0 | 0.0 | 0.00 | 0.00 | 0.00 | 99 | 1012.0 |
| 20260904080309 | 52 | 0 | 0.0 | 0.0 | 0.00 | 0.00 | 0.00 | 99 | 1012.0 |
| 20260904075805 | 52 | 0 | 0.0 | 0.0 | 0.00 | 0.00 | 0.00 | 99 | 1011.9 |
| 20260904075300 | 52 | 0 | 0.0 | 0.0 | 0.00 | 0.00 | 0.00 | 99 | 1012.0 |
| 20260904074753 | 52 | 0 | 0.0 | 0.0 | 0.00 | 0.00 | 0.00 | 99 | 1011.9 |
| 20260904074249 | 52 | 0 | 0.0 | 0.0 | 0.00 | 0.00 | 0.00 | 99 | 1012.1 |
| 20260904073744 | 53 | 0 | 0.0 | 0.0 | 0.00 | 0.00 | 0.00 | 99 | 1012.1 |
| 20260904073240 | 53 | 0 | 0.0 | 0.0 | 0.00 | 0.00 | 0.00 | 99 | 1012.0 |
| 20260904072736 | 53 | 0 | 0.0 | 0.0 | 0.00 | 0.00 | 0.00 | 99 | 1012.0 |
| 20260904072235 | 53 | 0 | 0.0 | 0.0 | 0.00 | 0.00 | 0.00 | 99 | 1012.1 |
| 20260904071731 | 53 | 0 | 0.0 | 0.0 | 0.00 | 0.00 | 0.00 | 99 | 1012.2 |
| 20260904071231 | 53 | 0 | 0.0 | 0.0 | 0.00 | 0.00 | 0.00 | 99 | 1012.0 |
| 20260904070726 | 53 | 0 | 0.0 | 0.0 | 0.00 | 0.00 | 0.00 | 99 | 1012.0 |
| 20260904070225 | 53 | 0 | 0.0 | 0.0 | 0.00 | 0.00 | 0.00 | 99 | 1012.0 |
| 20260904065720 | 53 | 0 | 0.0 | 0.0 | 0.00 | 0.74 | 0.74 | 99 | 1011.9 |
| 20260904065217 | 53 | 0 | 0.0 | 0.0 | 0.00 | 0.74 | 0.74 | 99 | 1012.1 |
| 20260904064716 | 53 | 0 | 0.0 | 0.0 | 0.00 | 0.74 | 0.74 | 99 | 1012.1 |
| 20260904064212 | 53 | 0 | 0.0 | 0.0 | 0.00 | 0.74 | 0.74 | 99 | 1012.2 |
| 20260904063708 | 54 | 0 | 0.0 | 0.0 | 0.00 | 0.74 | 0.74 | 99 | 1012.1 |
| 20260904063203 | 54 | 0 | 0.0 | 0.0 | 0.00 | 0.74 | 0.74 | 99 | 1012.0 |
| 20260904062659 | 54 | 0 | 0.0 | 0.0 | 0.00 | 0.74 | 0.74 | 99 | 1012.1 |
| 20260904062155 | 54 | 0 | 0.0 | 0.0 | 0.00 | 0.74 | 0.74 | 99 | 1011.9 |
| 20260904061650 | 54 | 0 | 0.0 | 0.0 | 0.00 | 0.74 | 0.74 | 99 | 1012.0 |
| 20260904061146 | 54 | 0 | 0.0 | 0.0 | 0.00 | 0.74 | 0.74 | 99 | 1012.0 |
| 20260904060643 | 54 | 0 | 0.0 | 0.0 | 0.00 | 0.74 | 0.74 | 99 | 1012.3 |
| 20260904060139 | 54 | 0 | 0.0 | 0.0 | 0.00 | 0.74 | 0.74 | 99 | 1012.0 |
| 20260904055638 | 54 | 0 | 0.0 | 0.0 | 0.00 | 0.74 | 0.74 | 99 | 1012.2 |
| 20260904055134 | 54 | 0 | 0.0 | 0.0 | 0.00 | 0.74 | 0.74 | 99 | 1012.2 |
| 20260904054629 | 54 | 0 | 0.0 | 0.0 | 0.00 | 0.74 | 0.74 | 99 | 1012.0 |
| 20260904054126 | 54 | 0 | 0.0 | 0.0 | 0.00 | 0.74 | 0.74 | 99 | 1012.1 |
| 20260904053620 | 53 | 0 | 0.0 | 0.0 | 0.00 | 0.74 | 0.74 | 99 | 1012.1 |
| 20260904053115 | 53 | 0 | 0.0 | 0.0 | 0.00 | 0.74 | 0.74 | 99 | 1012.2 |
| 20260904052611 | 54 | 0 | 0.0 | 0.0 | 0.00 | 0.74 | 0.74 | 99 | 1012.0 |
| 20260904052107 | 54 | 0 | 0.0 | 0.0 | 0.00 | 0.74 | 0.74 | 99 | 1012.0 |
| 20260904051603 | 54 | 0 | 0.0 | 0.0 | 0.00 | 0.74 | 0.74 | 99 | 1012.2 |
| 20260904051103 | 54 | 0 | 0.0 | 0.0 | 0.00 | 0.74 | 0.74 | 99 | 1011.9 |
| 20260904050559 | 54 | 0 | 0.0 | 0.0 | 0.00 | 0.74 | 0.74 | 99 | 1012.1 |
| 20260904050055 | 54 | 0 | 0.0 | 0.0 | 0.00 | 0.74 | 0.74 | 99 | 1012.2 |
| 20260904045550 | 54 | 0 | 0.0 | 0.0 | 0.00 | 0.74 | 0.74 | 99 | 1012.2 |
| 20260904045050 | 54 | 0 | 0.0 | 0.0 | 0.00 | 0.74 | 0.74 | 99 | 1012.0 |
| 20260904044545 | 54 | 0 | 0.0 | 0.0 | 0.00 | 0.74 | 0.74 | 98 | 1012.0 |
| 20260904044042 | 54 | 0 | 0.0 | 0.0 | 0.00 | 0.74 | 0.74 | 98 | 1012.1 |
| 20260904043538 | 54 | 0 | 0.0 | 0.0 | 0.00 | 0.74 | 0.74 | 98 | 1011.8 |
| 20260904043034 | 54 | 0 | 0.0 | 0.0 | 0.07 | 0.74 | 0.74 | 98 | 1012.0 |
| 20260904042530 | 54 | 0 | 0.0 | 0.0 | 0.07 | 0.74 | 0.74 | 98 | 1012.1 |
| 20260904042025 | 54 | 0 | 0.0 | 0.0 | 0.05 | 0.73 | 0.73 | 98 | 1012.0 |
| 20260904041521 | 54 | 0 | 0.0 | 0.0 | 0.17 | 0.73 | 0.73 | 98 | 1012.1 |
| 20260904041017 | 54 | 0 | 0.0 | 0.0 | 0.12 | 0.71 | 0.71 | 98 | 1011.8 |
| 20260904040516 | 54 | 0 | 0.0 | 0.0 | 0.31 | 0.69 | 0.69 | 98 | 1011.9 |
| 20260904040014 | 54 | 0 | 0.0 | 0.0 | 0.35 | 0.69 | 0.69 | 98 | 1012.0 |
| 20260904035508 | 54 | 0 | 0.0 | 0.0 | 0.05 | 0.64 | 0.64 | 98 | 1012.1 |
| 20260904035007 | 54 | 0 | 0.0 | 0.0 | 0.00 | 0.63 | 0.63 | 98 | 1011.9 |
| 20260904034502 | 54 | 0 | 0.0 | 0.0 | 0.07 | 0.63 | 0.63 | 98 | 1011.8 |
| 20260904033958 | 54 | 0 | 0.0 | 0.0 | 0.07 | 0.63 | 0.63 | 98 | 1011.7 |
| 20260904033454 | 54 | 0 | 0.0 | 0.0 | 0.00 | 0.62 | 0.62 | 98 | 1011.6 |
| 20260904032950 | 54 | 0 | 0.0 | 0.0 | 0.00 | 0.62 | 0.62 | 98 | 1011.8 |
| 20260904032445 | 55 | 0 | 0.0 | 0.0 | 0.00 | 0.62 | 0.62 | 98 | 1011.5 |
| 20260904031944 | 55 | 0 | 0.0 | 0.0 | 0.00 | 0.62 | 0.62 | 98 | 1011.6 |
| 20260904031439 | 55 | 0 | 0.0 | 0.0 | 0.00 | 0.62 | 0.62 | 97 | 1011.7 |
| 20260904030936 | 55 | 0 | 0.0 | 0.0 | 0.00 | 0.62 | 0.62 | 97 | 1011.4 |
| 20260904030431 | 55 | 0 | 0.0 | 0.0 | 0.00 | 0.62 | 0.62 | 97 | 1011.5 |
| 20260904025926 | 55 | 0 | 0.0 | 0.0 | 0.00 | 0.62 | 0.62 | 97 | 1011.3 |
| 20260904025422 | 55 | 0 | 0.0 | 0.0 | 0.00 | 0.62 | 0.62 | 97 | 1011.3 |
| 20260904024922 | 55 | 0 | 0.0 | 0.0 | 0.00 | 0.62 | 0.62 | 97 | 1011.5 |
| 20260904024417 | 55 | 0 | 0.0 | 0.0 | 0.00 | 0.62 | 0.62 | 97 | 1011.5 |
| 20260904023913 | 55 | 0 | 0.0 | 0.0 | 0.00 | 0.62 | 0.62 | 97 | 1011.3 |
| 20260904023409 | 55 | 359 | 0.0 | 0.0 | 0.00 | 0.62 | 0.62 | 96 | 1011.3 |
| 20260904022908 | 55 | 359 | 0.0 | 0.0 | 0.00 | 0.62 | 0.62 | 96 | 1011.2 |